IRNSS-1G 1 41469U 16027A 21065.79893223 -.00000353 00000-0 00000+0 0 9998 2 41469 1.9613 200.5004 0005154 218.0909 163.2800 1.00270719 17859 PSLV R/B 1 41470U 16027B 21065.02459295 .00001420 00000-0 27542-3 0 9992 2 41470 17.8371 318.1382 6031904 249.8586 38.2592 3.99315988 70445